This is the latest recevied weather packets stored in our database for station/object KB9PVH-8. If no packets are shown the sender has not sent any weather packets the latest 10 day(s).
| Time | Temp. | Humidity | Pressure | Rain* | Wind** | Luminosity | Snow |
|---|---|---|---|---|---|---|---|
| 1788218410 | 28.33° C | - | - | 0 mm | 1.79 m/s, ° | - | - |
| 1788217876 | 28.33° C | - | - | 0 mm | 2.68 m/s, ° | - | - |
| 1788217572 | 28.33° C | - | - | 0 mm | 2.68 m/s, ° | - | - |
| 1788216928 | 28.33° C | - | - | 0 mm | 5.36 m/s, ° | - | - |
| 1788216730 | 28.33° C | - | - | 0 mm | 5.36 m/s, ° | - | - |
| 1788215892 | 28.89° C | - | - | 0 mm | 3.13 m/s, ° | - | - |
| 1788215068 | 28.89° C | - | - | 0 mm | 4.92 m/s, ° | - | - |
| 1788214341 | 28.89° C | - | - | 0 mm | 2.68 m/s, ° | - | - |
| 1788214210 | 28.89° C | - | - | 0 mm | 2.68 m/s, ° | - | - |
| 1788213370 | 30° C | - | - | 0 mm | 4.02 m/s, ° | - | - |
| 1788212530 | 30° C | - | - | 0 mm | 6.26 m/s, ° | - | - |
| 1788211828 | 30.56° C | - | - | 0 mm | 12.96 m/s, ° | - | - |
| 1788211692 | 30.56° C | - | - | 0 mm | 12.96 m/s, ° | - | - |
| 1788208501 | 31.11° C | - | - | 0 mm | 19.22 m/s, ° | - | - |
| 1788208330 | 31.11° C | - | - | 0 mm | 19.22 m/s, ° | - | - |
| 1788205113 | 30° C | - | - | 0 mm | 14.31 m/s, ° | - | - |
| 1788204969 | 30° C | - | - | 0 mm | 14.31 m/s, ° | - | - |
| 1788204101 | 30.56° C | - | - | 0 mm | 12.07 m/s, ° | - | - |
| 1788203260 | 31.11° C | - | - | 0 mm | 12.07 m/s, ° | - | - |
| 1788202421 | 31.11° C | - | - | 0 mm | 31.29 m/s, ° | - | - |
| 1788200740 | 30.56° C | - | - | 0 mm | 32.63 m/s, ° | - | - |
| 1788199205 | 30° C | - | - | 0 mm | 34.42 m/s, ° | - | - |
| 1788199060 | 30° C | - | - | 0 mm | 34.42 m/s, ° | - | - |
| 1788198350 | 29.44° C | - | - | 0 mm | 34.42 m/s, ° | - | - |
| 1788198220 | 29.44° C | - | - | 0 mm | 34.42 m/s, ° | - | - |
* Rain latest hour (hover to see other rain measurements)
** Current wind speed in m/s (hover to see current wind gust speed)